Вернуться в каталог

SHIYAN 20A DEB

АктивенLEO
NORAD 55716·DEBRIS·🇨🇳 China

Запущен Dec 12, 2022 с Jiuquan Satellite Launch Center

Loading…

Ближайшие Пролёты (ближайшие 24 часа)

TLE

СвежийSource: Space-Track

Эпоха: Sep 14, 2026, 08:33 UTC

1 55716U 22169E   26257.35638153  .00000437  00000-0  20920-3 0  9990
2 55716  59.9952 292.2768 0004843 354.4211   5.6771 14.33027257185756

Отслеживайте SHIYAN 20A DEB в реальном времени с AllMySat

Download on the App Store